Regional Weather Roundup
Issued by NWS Charleston, WV

Home | Current Version | Previous Version | Text Only | Print | Product List | Glossary Off
Versions: 1 2 3 4 5 6 7 8 9 10 11 12 13 14 15 16 17 18 19 20 21 22 23 24 25 26 27 28 29 30 31 32 33 34 35 36 37 38 39 40 41 42 43 44 45 46 47 48 49 50

221
ASUS41 KRLX 011210
RWRRLX
West Virginia Regional Weather Roundup
National Weather Service Charleston WV
800 AM EDT SUN MAY 01 2016

Note: "fair" indicates few or no clouds below 12,000 feet with no
significant weather and/or obstructions to visibility.

WVZ003-011300-
Northern Panhandle of West Virginia

CITY           SKY/WX    TMP DP  RH WIND       PRES   REMARKS
WHEELING       CLOUDY    61  58  90 SW13      29.94R
$$

WVZ009-011300-
Northwest West Virginia

CITY           SKY/WX    TMP DP  RH WIND       PRES   REMARKS
PARKERSBURG    PTSUNNY   61  58  90 S8        29.98R
$$

WVZ006-011300-
Western West Virginia

CITY           SKY/WX    TMP DP  RH WIND       PRES   REMARKS
HUNTINGTON       N/A     61  59  93 CALM      29.96S
$$

WVZ015-011300-
West Central West Virginia

CITY           SKY/WX    TMP DP  RH WIND       PRES   REMARKS
CHARLESTON     CLOUDY    60  57  89 S5        29.98R
$$

WVZ022-031-011300-
North Central West Virginia

CITY           SKY/WX    TMP DP  RH WIND       PRES   REMARKS
CLARKSBURG     LGT RAIN  60  58  92 S5        29.98S
MORGANTOWN     LGT RAIN  61  56  83 S5        29.98R
$$

WVZ025-035-042-045-011300-
Southern West Virginia

CITY           SKY/WX    TMP DP  RH WIND       PRES   REMARKS
BECKLEY        LGT RAIN  54  52  93 SE8       30.03F
LOGAN          NOT AVBL
BLUEFIELD      LGT RAIN  54  53  97 SE5       30.08R FOG
LEWISBURG      RAIN      52  51  97 CALM      30.09R
$$

WVZ047-011300-
Northern Mountains of West Virginia

CITY           SKY/WX    TMP DP  RH WIND       PRES   REMARKS
ELKINS         LGT RAIN  55  52  89 CALM      30.04S
$$

WVZ052-011300-
Eastern Panhandle of West Virginia

CITY           SKY/WX    TMP DP  RH WIND       PRES   REMARKS
MARTINSBURG    LGT RAIN  51  50  96 SE8       30.06R FOG
PETERSBURG     LGT RAIN  57  55  91 S8        30.03S
$$




USA.gov is the U.S. government's official web portal to all federal, state and local government web resources and services.